Time,TemperatureF,DewpointF,PressureIn,WindDirection,WindDirectionDegrees,WindSpeedMPH,WindSpeedGustMPH,Humidity,HourlyPrecipIn,Conditions,Clouds,dailyrainin,SoftwareType,DateUTC
2013-05-18 00:02:00,55.0,54.0,-100.00,ESE,120,13.0,19.0,94,0.00,,,0.01,,2013-05-18 05:02:00,
2013-05-18 00:12:00,55.0,54.0,-100.00,SE,125,17.0,22.0,94,0.00,,,0.01,,2013-05-18 05:12:00,
2013-05-18 00:22:00,55.0,54.0,-100.00,ESE,120,16.0,22.0,94,0.00,,,0.01,,2013-05-18 05:22:00,
2013-05-18 00:31:00,55.0,54.0,-100.00,ESE,110,12.0,22.0,94,0.00,,,0.01,,2013-05-18 05:31:00,
2013-05-18 00:42:00,55.0,54.0,-100.00,ESE,110,12.0,18.0,94,0.00,,,0.01,,2013-05-18 05:42:00,
2013-05-18 00:51:00,55.0,54.0,-100.00,ESE,115,12.0,17.0,94,0.00,,,0.01,,2013-05-18 05:51:00,
2013-05-18 01:02:00,55.0,54.0,-100.00,ESE,120,13.0,17.0,94,0.00,,,0.01,,2013-05-18 06:02:00,
2013-05-18 01:11:00,55.0,54.0,-100.00,SE,125,14.0,17.0,94,0.00,,,0.01,,2013-05-18 06:11:00,
2013-05-18 01:22:00,55.0,54.0,-100.00,ESE,115,14.0,18.0,94,0.00,,,0.01,,2013-05-18 06:22:00,
2013-05-18 01:31:00,55.0,54.0,-100.00,SE,130,19.0,21.0,94,0.00,,,0.01,,2013-05-18 06:31:00,
2013-05-18 01:42:00,55.0,54.0,-100.00,SE,130,16.0,21.0,94,0.00,,,0.01,,2013-05-18 06:42:00,
2013-05-18 01:52:00,55.0,54.0,-100.00,SE,140,15.0,22.0,94,0.00,,,0.01,,2013-05-18 06:52:00,
2013-05-18 02:01:00,55.0,54.0,-100.00,SE,145,24.0,30.0,94,0.02,,,0.02,,2013-05-18 07:01:00,
2013-05-18 02:11:00,55.0,54.0,-100.00,SE,135,23.0,32.0,94,0.01,,,0.02,,2013-05-18 07:11:00,
2013-05-18 02:21:00,55.0,54.0,-100.00,SE,135,17.0,28.0,94,0.01,,,0.02,,2013-05-18 07:21:00,
2013-05-18 02:31:00,56.0,55.0,-100.00,SSE,160,14.0,23.0,94,0.00,,,0.02,,2013-05-18 07:31:00,
2013-05-18 02:42:00,56.0,55.0,-100.00,SSE,165,9.0,21.0,94,0.00,,,0.02,,2013-05-18 07:42:00,
2013-05-18 02:52:00,56.0,55.0,-100.00,ESE,105,16.0,20.0,94,0.00,,,0.02,,2013-05-18 07:52:00,
2013-05-18 03:01:00,56.0,54.0,-100.00,SE,130,15.0,21.0,94,0.00,,,0.02,,2013-05-18 08:01:00,
2013-05-18 03:11:00,55.0,54.0,-100.00,SE,125,14.0,19.0,94,0.00,,,0.02,,2013-05-18 08:11:00,
2013-05-18 03:21:00,55.0,54.0,-100.00,SE,130,12.0,16.0,94,0.00,,,0.02,,2013-05-18 08:21:00,
2013-05-18 03:32:00,55.0,54.0,-100.00,SE,135,9.0,15.0,94,0.00,,,0.02,,2013-05-18 08:32:00,
2013-05-18 03:42:00,55.0,54.0,-100.00,East,85,4.0,11.0,94,0.00,,,0.02,,2013-05-18 08:42:00,
2013-05-18 03:52:00,55.0,54.0,-100.00,East,100,11.0,15.0,94,0.00,,,0.02,,2013-05-18 08:52:00,
2013-05-18 04:02:00,55.0,54.0,-100.00,ESE,115,12.0,17.0,94,0.00,,,0.02,,2013-05-18 09:02:00,
2013-05-18 04:11:00,55.0,54.0,-100.00,SE,125,15.0,19.0,94,0.00,,,0.02,,2013-05-18 09:11:00,
2013-05-18 04:22:00,55.0,54.0,-100.00,ESE,120,17.0,22.0,94,0.00,,,0.02,,2013-05-18 09:22:00,
2013-05-18 04:32:00,55.0,54.0,-100.00,ESE,115,17.0,21.0,94,0.00,,,0.02,,2013-05-18 09:32:00,
2013-05-18 04:43:00,55.0,54.0,-100.00,ESE,110,12.0,19.0,94,0.00,,,0.02,,2013-05-18 09:43:00,
2013-05-18 04:53:00,56.0,54.0,-100.00,ENE,70,8.0,15.0,94,0.00,,,0.02,,2013-05-18 09:53:00,
2013-05-18 05:02:00,56.0,54.0,-100.00,ENE,75,9.0,12.0,94,0.00,,,0.02,,2013-05-18 10:02:00,
2013-05-18 05:12:00,55.0,54.0,-100.00,ENE,70,9.0,15.0,94,0.00,,,0.02,,2013-05-18 10:12:00,
2013-05-18 05:22:00,55.0,54.0,-100.00,East,95,13.0,16.0,94,0.00,,,0.02,,2013-05-18 10:22:00,
2013-05-18 05:33:00,55.0,54.0,-100.00,East,100,15.0,19.0,94,0.00,,,0.02,,2013-05-18 10:33:00,
2013-05-18 05:42:00,55.0,54.0,-100.00,ESE,115,16.0,21.0,94,0.00,,,0.02,,2013-05-18 10:42:00,
2013-05-18 05:52:00,56.0,54.0,-100.00,SE,130,16.0,20.0,94,0.00,,,0.02,,2013-05-18 10:52:00,
2013-05-18 06:03:00,56.0,55.0,-100.00,SE,135,15.0,20.0,94,0.00,,,0.02,,2013-05-18 11:03:00,
2013-05-18 06:12:00,56.0,55.0,-100.00,SE,125,12.0,19.0,94,0.00,,,0.02,,2013-05-18 11:12:00,
2013-05-18 06:22:00,56.0,55.0,-100.00,SE,125,12.0,17.0,94,0.00,,,0.02,,2013-05-18 11:22:00,
2013-05-18 06:33:00,56.0,55.0,-100.00,SE,125,12.0,16.0,94,0.00,,,0.02,,2013-05-18 11:33:00,
2013-05-18 06:42:00,56.0,55.0,-100.00,SE,145,9.0,14.0,94,0.00,,,0.02,,2013-05-18 11:42:00,
2013-05-18 06:52:00,56.0,55.0,-100.00,SE,145,8.0,13.0,94,0.00,,,0.02,,2013-05-18 11:52:00,
2013-05-18 07:01:00,57.0,55.0,-100.00,SE,145,9.0,12.0,94,0.00,,,0.02,,2013-05-18 12:01:00,
2013-05-18 07:12:00,57.0,55.0,-100.00,SE,125,12.0,15.0,94,0.00,,,0.02,,2013-05-18 12:12:00,
2013-05-18 07:23:00,57.0,55.0,-100.00,East,100,12.0,16.0,94,0.00,,,0.02,,2013-05-18 12:23:00,
2013-05-18 07:33:00,57.0,55.0,-100.00,SE,125,12.0,17.0,94,0.00,,,0.02,,2013-05-18 12:33:00,
2013-05-18 07:42:00,57.0,55.0,-100.00,SE,135,12.0,16.0,94,0.00,,,0.02,,2013-05-18 12:42:00,
2013-05-18 07:52:00,57.0,55.0,-100.00,SSE,150,11.0,17.0,94,0.00,,,0.02,,2013-05-18 12:52:00,
2013-05-18 08:01:00,57.0,55.0,-100.00,SSE,150,12.0,14.0,94,0.00,,,0.02,,2013-05-18 13:01:00,
2013-05-18 08:11:00,57.0,55.0,-100.00,SSE,155,11.0,14.0,94,0.00,,,0.02,,2013-05-18 13:11:00,
2013-05-18 08:21:00,58.0,55.0,-100.00,SSE,150,16.0,18.0,94,0.00,,,0.02,,2013-05-18 13:21:00,
2013-05-18 08:33:00,58.0,55.0,-100.00,South,180,13.0,19.0,94,0.00,,,0.03,,2013-05-18 13:33:00,
2013-05-18 08:43:00,58.0,55.0,-100.00,SSE,155,11.0,16.0,94,0.00,,,0.03,,2013-05-18 13:43:00,
2013-05-18 08:52:00,58.0,57.0,-100.00,SSE,165,13.0,17.0,94,0.00,,,0.03,,2013-05-18 13:52:00,
2013-05-18 09:03:00,59.0,57.0,-100.00,SSE,155,14.0,18.0,94,0.00,,,0.03,,2013-05-18 14:03:00,
2013-05-18 09:12:00,59.0,57.0,-100.00,SSE,155,13.0,18.0,94,0.00,,,0.03,,2013-05-18 14:12:00,
2013-05-18 09:22:00,60.0,57.0,-100.00,SSE,155,15.0,20.0,94,0.00,,,0.03,,2013-05-18 14:22:00,
2013-05-18 09:32:00,60.0,59.0,-100.00,SSE,165,14.0,20.0,94,0.00,,,0.03,,2013-05-18 14:32:00,
2013-05-18 09:42:00,61.0,59.0,-100.00,South,170,13.0,20.0,94,0.00,,,0.03,,2013-05-18 14:42:00,
2013-05-18 09:54:00,60.0,59.0,-100.00,SSE,165,17.0,21.0,94,0.00,,,0.03,,2013-05-18 14:54:00,
2013-05-18 10:03:00,61.0,59.0,-100.00,South,175,12.0,20.0,94,0.00,,,0.03,,2013-05-18 15:03:00,
2013-05-18 10:13:00,61.0,59.0,-100.00,South,170,14.0,17.0,94,0.00,,,0.03,,2013-05-18 15:13:00,
2013-05-18 10:23:00,62.0,59.0,-100.00,SSE,165,15.0,18.0,93,0.00,,,0.03,,2013-05-18 15:23:00,
2013-05-18 10:33:00,62.0,61.0,-100.00,SSE,165,13.0,17.0,93,0.00,,,0.03,,2013-05-18 15:33:00,
2013-05-18 10:43:00,62.0,61.0,-100.00,South,175,15.0,22.0,93,0.00,,,0.03,,2013-05-18 15:43:00,
2013-05-18 10:53:00,62.0,61.0,-100.00,South,185,16.0,22.0,93,0.00,,,0.03,,2013-05-18 15:53:00,
2013-05-18 11:02:00,63.0,61.0,-100.00,South,185,14.0,21.0,93,0.00,,,0.03,,2013-05-18 16:02:00,
2013-05-18 11:13:00,63.0,61.0,-100.00,South,190,17.0,20.0,93,0.00,,,0.03,,2013-05-18 16:13:00,
2013-05-18 11:22:00,63.0,61.0,-100.00,South,175,17.0,21.0,92,0.00,,,0.03,,2013-05-18 16:22:00,
2013-05-18 11:33:00,64.0,61.0,-100.00,South,185,15.0,23.0,92,0.00,,,0.03,,2013-05-18 16:33:00,
2013-05-18 11:42:00,65.0,63.0,-100.00,South,175,13.0,18.0,91,0.00,,,0.03,,2013-05-18 16:42:00,
2013-05-18 11:52:00,65.0,63.0,-100.00,SSE,165,9.0,16.0,90,0.00,,,0.03,,2013-05-18 16:52:00,
2013-05-18 12:02:00,66.0,63.0,-100.00,South,175,11.0,14.0,88,0.00,,,0.03,,2013-05-18 17:02:00,
2013-05-18 12:12:00,67.0,63.0,-100.00,SSE,165,14.0,18.0,86,0.00,,,0.03,,2013-05-18 17:12:00,
2013-05-18 12:22:00,67.0,63.0,-100.00,South,170,14.0,18.0,85,0.00,,,0.03,,2013-05-18 17:22:00,
2013-05-18 12:32:00,68.0,63.0,-100.00,South,175,14.0,17.0,85,0.00,,,0.03,,2013-05-18 17:32:00,
2013-05-18 12:42:00,68.0,63.0,-100.00,South,190,16.0,19.0,84,0.00,,,0.03,,2013-05-18 17:42:00,
2013-05-18 12:51:00,68.0,63.0,-100.00,South,185,16.0,21.0,83,0.00,,,0.03,,2013-05-18 17:51:00,
2013-05-18 13:01:00,69.0,63.0,-100.00,South,180,14.0,17.0,81,0.00,,,0.03,,2013-05-18 18:01:00,
2013-05-18 13:12:00,69.0,63.0,-100.00,South,180,13.0,18.0,81,0.00,,,0.03,,2013-05-18 18:12:00,
2013-05-18 13:21:00,71.0,64.0,-100.00,South,180,14.0,18.0,78,0.00,,,0.03,,2013-05-18 18:21:00,
2013-05-18 13:32:00,72.0,64.0,-100.00,South,185,12.0,16.0,76,0.00,,,0.03,,2013-05-18 18:32:00,
2013-05-18 13:42:00,71.0,64.0,-100.00,South,185,13.0,20.0,78,0.00,,,0.03,,2013-05-18 18:42:00,
2013-05-18 13:52:00,71.0,64.0,-100.00,SSW,195,13.0,20.0,78,0.00,,,0.03,,2013-05-18 18:52:00,
2013-05-18 14:02:00,72.0,64.0,-100.00,South,180,12.0,18.0,78,0.00,,,0.03,,2013-05-18 19:02:00,
2013-05-18 14:11:00,72.0,64.0,-100.00,South,175,12.0,18.0,77,0.00,,,0.03,,2013-05-18 19:11:00,
2013-05-18 14:22:00,71.0,64.0,-100.00,South,175,13.0,20.0,78,0.00,,,0.03,,2013-05-18 19:22:00,
2013-05-18 14:32:00,71.0,64.0,-100.00,South,185,15.0,19.0,78,0.00,,,0.03,,2013-05-18 19:32:00,
2013-05-18 14:42:00,71.0,64.0,-100.00,South,190,14.0,20.0,78,0.00,,,0.03,,2013-05-18 19:42:00,
2013-05-18 14:52:00,71.0,64.0,-100.00,South,190,15.0,19.0,77,0.00,,,0.03,,2013-05-18 19:52:00,
2013-05-18 15:02:00,72.0,64.0,-100.00,South,185,12.0,19.0,75,0.00,,,0.03,,2013-05-18 20:02:00,
2013-05-18 15:11:00,72.0,63.0,-100.00,South,190,15.0,19.0,73,0.00,,,0.03,,2013-05-18 20:11:00,
2013-05-18 15:22:00,73.0,64.0,-100.00,South,180,14.0,18.0,74,0.00,,,0.03,,2013-05-18 20:22:00,
2013-05-18 15:32:00,73.0,64.0,-100.00,South,180,15.0,19.0,74,0.00,,,0.03,,2013-05-18 20:32:00,
2013-05-18 15:42:00,73.0,64.0,-100.00,South,170,15.0,19.0,73,0.00,,,0.03,,2013-05-18 20:42:00,
2013-05-18 15:52:00,73.0,64.0,-100.00,South,175,17.0,21.0,73,0.00,,,0.03,,2013-05-18 20:52:00,
2013-05-18 16:01:00,73.0,64.0,-100.00,South,185,13.0,19.0,74,0.00,,,0.03,,2013-05-18 21:01:00,
2013-05-18 16:12:00,73.0,64.0,-100.00,South,185,17.0,21.0,72,0.00,,,0.03,,2013-05-18 21:12:00,
2013-05-18 16:21:00,73.0,64.0,-100.00,South,180,12.0,19.0,75,0.00,,,0.03,,2013-05-18 21:21:00,
2013-05-18 16:32:00,73.0,64.0,-100.00,South,180,12.0,19.0,75,0.00,,,0.03,,2013-05-18 21:32:00,
2013-05-18 16:43:00,74.0,66.0,-100.00,SSE,160,9.0,14.0,74,0.00,,,0.03,,2013-05-18 21:43:00,
2013-05-18 16:53:00,73.0,64.0,-100.00,SSE,155,11.0,15.0,75,0.00,,,0.03,,2013-05-18 21:53:00,
2013-05-18 17:03:00,74.0,66.0,-100.00,SSE,150,9.0,14.0,75,0.00,,,0.03,,2013-05-18 22:03:00,
2013-05-18 17:12:00,74.0,66.0,-100.00,SSE,160,11.0,12.0,75,0.00,,,0.03,,2013-05-18 22:12:00,
2013-05-18 17:23:00,75.0,66.0,-100.00,SSE,165,11.0,14.0,74,0.00,,,0.03,,2013-05-18 22:23:00,
2013-05-18 17:33:00,75.0,66.0,-100.00,SE,145,12.0,14.0,75,0.00,,,0.03,,2013-05-18 22:33:00,
2013-05-18 17:42:00,74.0,66.0,-100.00,SE,130,12.0,15.0,75,0.00,,,0.03,,2013-05-18 22:42:00,
2013-05-18 17:52:00,75.0,68.0,-100.00,SE,135,11.0,14.0,75,0.00,,,0.03,,2013-05-18 22:52:00,
2013-05-18 18:01:00,75.0,68.0,-100.00,SE,140,12.0,16.0,75,0.00,,,0.03,,2013-05-18 23:01:00,
2013-05-18 18:11:00,75.0,66.0,-100.00,SE,130,15.0,19.0,76,0.00,,,0.03,,2013-05-18 23:11:00,
2013-05-18 18:22:00,75.0,68.0,-100.00,SE,130,11.0,17.0,77,0.00,,,0.03,,2013-05-18 23:22:00,
2013-05-18 18:32:00,74.0,68.0,-100.00,SE,145,11.0,16.0,78,0.00,,,0.03,,2013-05-18 23:32:00,
2013-05-18 18:41:00,74.0,66.0,-100.00,SSE,160,12.0,14.0,76,0.00,,,0.03,,2013-05-18 23:41:00,
2013-05-18 18:52:00,74.0,66.0,-100.00,SE,145,14.0,17.0,77,0.00,,,0.03,,2013-05-18 23:52:00,
2013-05-18 19:01:00,74.0,66.0,-100.00,SE,140,12.0,19.0,76,0.00,,,0.03,,2013-05-19 00:01:00,
2013-05-18 19:11:00,74.0,66.0,-100.00,SE,130,12.0,17.0,75,0.00,,,0.03,,2013-05-19 00:11:00,
2013-05-18 19:21:00,74.0,66.0,-100.00,SE,130,12.0,18.0,76,0.00,,,0.03,,2013-05-19 00:21:00,
2013-05-18 19:31:00,73.0,68.0,-100.00,SSE,150,14.0,19.0,82,0.01,,,0.03,,2013-05-19 00:31:00,
2013-05-18 19:41:00,71.0,66.0,-100.00,SE,135,14.0,17.0,86,0.01,,,0.03,,2013-05-19 00:41:00,
2013-05-18 19:51:00,71.0,66.0,-100.00,SE,145,13.0,16.0,87,0.00,,,0.03,,2013-05-19 00:51:00,
2013-05-18 20:01:00,71.0,66.0,-100.00,SE,140,11.0,17.0,86,0.01,,,0.03,,2013-05-19 01:01:00,
2013-05-18 20:11:00,71.0,66.0,-100.00,ESE,115,9.0,13.0,87,0.00,,,0.03,,2013-05-19 01:11:00,
2013-05-18 20:21:00,71.0,66.0,-100.00,ESE,115,11.0,14.0,87,0.00,,,0.03,,2013-05-19 01:21:00,
2013-05-18 20:32:00,70.0,66.0,-100.00,ESE,110,8.0,12.0,88,0.01,,,0.03,,2013-05-19 01:32:00,
2013-05-18 20:42:00,70.0,66.0,-100.00,East,100,9.0,12.0,88,0.00,,,0.03,,2013-05-19 01:42:00,
2013-05-18 20:52:00,69.0,66.0,-100.00,NE,35,2.0,9.0,88,0.00,,,0.03,,2013-05-19 01:52:00,
2013-05-18 21:01:00,69.0,66.0,-100.00,ESE,120,3.0,5.0,89,0.00,,,0.03,,2013-05-19 02:01:00,
2013-05-18 21:11:00,69.0,66.0,-100.00,SE,140,6.0,7.0,88,0.00,,,0.03,,2013-05-19 02:11:00,
2013-05-18 21:21:00,69.0,66.0,-100.00,NNW,335,1.0,4.0,88,0.00,,,0.03,,2013-05-19 02:21:00,
2013-05-18 21:32:00,69.0,66.0,-100.00,NE,50,1.0,3.0,89,0.00,,,0.03,,2013-05-19 02:32:00,
2013-05-18 21:42:00,69.0,66.0,-100.00,ENE,65,2.0,3.0,89,0.00,,,0.03,,2013-05-19 02:42:00,
2013-05-18 21:52:00,69.0,66.0,-100.00,NE,50,2.0,4.0,89,0.00,,,0.03,,2013-05-19 02:52:00,
2013-05-18 22:01:00,69.0,64.0,-100.00,ESE,110,3.0,6.0,87,0.00,,,0.02,,2013-05-19 03:01:00,
2013-05-18 22:11:00,69.0,64.0,-100.00,SE,130,7.0,9.0,85,0.00,,,0.02,,2013-05-19 03:11:00,
2013-05-18 22:21:00,69.0,64.0,-100.00,SE,140,5.0,8.0,85,0.00,,,0.02,,2013-05-19 03:21:00,
2013-05-18 22:33:00,69.0,64.0,-100.00,ESE,115,6.0,9.0,86,0.00,,,0.02,,2013-05-19 03:33:00,
2013-05-18 22:42:00,68.0,64.0,-100.00,ESE,120,5.0,8.0,86,0.00,,,0.02,,2013-05-19 03:42:00,
2013-05-18 22:53:00,68.0,64.0,-100.00,SE,125,6.0,7.0,86,0.00,,,0.02,,2013-05-19 03:53:00,
2013-05-18 23:02:00,68.0,64.0,-100.00,SE,145,6.0,8.0,86,0.00,,,0.02,,2013-05-19 04:02:00,
2013-05-18 23:12:00,68.0,64.0,-100.00,SSE,150,7.0,9.0,86,0.00,,,0.02,,2013-05-19 04:12:00,
2013-05-18 23:23:00,68.0,64.0,-100.00,SSE,155,11.0,12.0,86,0.00,,,0.02,,2013-05-19 04:23:00,
2013-05-18 23:33:00,68.0,64.0,-100.00,SSE,155,11.0,14.0,86,0.00,,,0.02,,2013-05-19 04:33:00,
2013-05-18 23:42:00,68.0,64.0,-100.00,SSE,150,11.0,13.0,86,0.00,,,0.02,,2013-05-19 04:42:00,
2013-05-18 23:52:00,67.0,63.0,-100.00,SSE,150,10.0,12.0,87,0.00,,,0.02,,2013-05-19 04:52:00,